TIMESTAMP,CO2_1_1_1,H2O_1_1_1,TAU_1_1_1,TAU_SSITC_TEST_1_1_1,H_1_1_1,H_SSITC_TEST_1_1_1,LE_1_1_1,LE_SSITC_TEST_1_1_1,FC_1_1_1,FC_SSITC_TEST_1_1_1,WD_0_0_1,WS_0_0_1,WS_MAX_0_0_1,U_SIGMA_0_0_1,V_SIGMA_0_0_1,W_SIGMA_0_0_1,USTAR_0_0_1,MO_LENGTH_0_0_1,ZL_0_0_1,FETCH_MAX_0_0_1,FETCH_70_0_0_1,FETCH_80_0_0_1,FETCH_90_0_0_1,PA_0_0_1,RH_0_0_1,TA_0_0_1,VPD_0_0_1,T_SONIC_0_0_1,T_SONIC_SIGMA_0_0_1
[yyyymmddHHMMSS],[mmolCO2 mol-1],[mmolH2O mol-1],[kg m-1 s-2],[#],[W m-2],[#],[W m-2],[#],[umolCO2 m-2 s-1],[#],[Decimal degrees],[m s-1],[m s-1],[m s-1],[m s-1],[m s-1],[m s-1],[m],[#],[m],[m],[m],[m],[kPa],[%],[deg C],[hPa],[deg C],[deg C]
20221127003000,423.73938034735141,4.9718495767142166,0.11811766462439427,0,-38.306202872537312,0,1.8529611082089805,0,0.32878599424606797,0,235.14868125174132,2.8406386648846573,5.1810344216278148,0.68269431269887826,0.65527865345046687,0.39840684521792219,0.32034299906024977,70.823630271752478,0.26827204320219689,105.16849431267134,192.28154937447539,230.11190520829632,288.07279924876644,92.665390416221044,46.783448275862071,6.7955172413792866,5.2421147153548420,7.1217497943407579,0.27451762748009140
20221127010000,424.13964921303915,4.9483957090598691,0.12364259008836834,0,-36.573036693854689,0,0.90460618670332493,0,0.31020758564814710,0,235.31744959318863,2.5905237058857926,4.9035472624552865,0.70296248338365308,0.57320964923902262,0.37528141044037461,0.32738847595591053,79.199397516081532,0.23990081485332040,112.25868966936682,205.24468778834213,245.62547105794675,307.49394278583594,92.694306128689234,48.297333333333334,6.2690000000000055,4.9116085821080286,6.5704495798747757,0.31084426634871826
20221127013000,424.67938683592291,5.0400024156395666,0.24093687030653721,0,-49.743405779097664,0,4.2073415803257452,2,0.78894279490594021,1,258.88489881759807,2.7970770617427116,6.4214506022829623,0.95519266526366209,0.80248609860788345,0.57575959365567675,0.45665928228384201,158.07874584381861,0.12019326126721647,104.02453546647027,190.19002775665874,227.60888801384462,284.93931874013822,92.734782319780322,50.325000000000003,5.9456666666666820,4.6147053130114761,6.2816355780186086,0.24439122074897959
20221127020000,425.33435074294522,5.2356456834356342,0.12020025220172012,0,-25.325647578789070,0,-2.3778762907613333,0,0.28230796146001763,0,262.38423972271710,2.5455205333316617,5.5153644137564424,0.75926127963897116,0.55650181750715333,0.39260586850664386,0.32221601634337343,109.10811944773268,0.17413919418803464,106.90725276473835,195.46055437341948,233.91636226282657,292.83552802774108,92.774820958984378,54.045999999999999,5.4723333333333244,4.1312037580966061,5.8126499065823509,0.20375230376549877
20221127023000,425.74458791207826,5.2976621401566391,0.16486613364567065,0,-52.341529248280594,0,0.17498156086104072,2,0.95055743495522305,1,279.53813876293430,3.1600299879823082,6.4179493442736959,0.80842614592641593,0.82659852727795502,0.49265559239053752,0.37700595645701407,84.549199857692102,0.22472122778192585,101.08779782414187,184.82073472205064,221.18321558799448,276.89513936100229,92.755339992404515,56.979666666666667,4.8793333333333067,3.7110219690312340,5.2474102232191626,0.29870898841652477
20221127030000,426.16453533122086,5.4455164045453186,0.13138673419780991,0,-36.148972359032328,0,-0.39947630497915437,2,0.75447710938746049,0,291.74297982242962,2.7726875744989004,5.7489706789991946,0.91483241254464975,0.61410580234132484,0.43541900471630746,0.33627024816585954,86.864939087737142,0.21873036692985212,101.83093952355797,186.17943476147195,222.80923251834972,278.93071960761887,92.742515633897568,60.761000000000003,4.3523333333333198,3.2623266205910824,4.8006469997829981,0.21037507195429744
20221127033000,426.34570823160209,5.5272975521304977,5.8315609452168550E-002,0,-26.997640938439201,0,-2.2986928521406043,0,0.51692716967872154,0,303.86575399713109,2.5283643945542185,4.2920221994913383,0.51760053564389619,0.43496636224099544,0.28914142273125620,0.22384845489390912,34.312763415975397,0.55372981096456797,102.03047998217978,186.54425835999785,223.24583318853800,279.47729183777437,92.754825918374621,63.527999999999999,3.9323333333333039,2.9441520468352076,4.4263631872183282,0.20094949907042886
20221127040000,426.20389975258172,5.5861532739640420,9.6116216838946222E-002,0,-23.944421575761510,0,-4.9473614506805879,0,0.75478372830503015,0,302.95821815691369,2.8221895703638946,5.1851687203888650,0.66199437331505495,0.49936423688717374,0.36749564693736586,0.28717718415385118,81.697658872207100,0.23256480372002006,102.79525938868345,187.94251902896795,224.91919408853732,281.57214111634556,92.767756336371534,65.876666666666665,3.5693333333333612,2.6850118865584900,4.0724910227457940,0.25869123592015497
20221127043000,426.61599393016189,5.7572606800646486,0.12954090701167598,0,-22.882351898794273,0,-12.996906547471420,1,0.96759881934575498,0,306.67370295811634,2.9219137058115576,6.1876104967686745,0.88322159922039489,0.74603782887275283,0.50030065621978037,0.33289083216511528,133.19396968464312,0.14264910074371517,90.388152495842746,165.25837058506744,197.77206201354127,247.58715315433145,92.800175752387148,71.634000000000000,2.8166666666666629,2.1162163627991584,3.3399023471409350,0.23680306553032640
20221127050000,426.45781197036416,5.9622625889505674,0.17165722827703261,0,-29.034591581347808,0,-5.2749590390264434,0,1.4862397290529941,0,308.53465584821771,3.5199436846679730,6.6199218025257345,0.93625045374160321,0.78052013593966207,0.55258645220004110,0.38281321725469097,159.65879279584362,0.11900378092107573,93.352134512831086,170.67747502570157,204.25734597039391,255.70595909652090,92.817195902560769,77.064000000000007,2.2839999999999918,1.6474876018557449,2.8305870759753020,0.19967691272484972
20221127053000,426.20191981802043,6.0134499620296893,0.23747053750500546,0,-27.470164437020980,0,-3.1251872731218509,0,1.0929121311083565,0,313.99637874355551,3.4681870875313607,7.3169770463069588,1.0983177320782240,0.83120002629677847,0.57983604311244374,0.44983955590908076,273.80059721517381,6.9393566680456584E-002,102.20140043143832,186.85675545352382,223.61981239661722,279.94546942830232,92.809597898694918,80.769000000000005,1.7453333333333489,1.3291996977592078,2.3020271709510780,0.20187972143415847
20221127060000,426.08382165643053,6.0651060872702338,0.42389754187043943,0,-43.129404206155698,0,-6.7471772954782283,0,1.4318125992362982,0,315.36482534239042,3.4935390178100483,8.0306315992966688,1.2970192163297158,0.96795752106555233,0.67204968771609419,0.60050776555725016,414.87859215288682,4.5796530260588414E-002,114.43231798018930,209.21877358371913,250.38143675933824,313.44784748055741,92.814064650824662,84.159999999999997,1.2919999999999732,1.0597858674316638,1.8414217851427566,0.16676302199528090
20221127063000,426.04488346312405,6.0878258109429861,0.27141331077228770,0,-31.596160364721925,0,-1.8948183872306601,1,0.72342778720912759,0,319.68972839663775,3.2561720910816958,7.3273463459795227,1.1133296588332133,0.93149414105344919,0.62609842718345732,0.48022853814519112,289.64409947145236,6.5597745766861934E-002,101.27428401975763,185.16169096435777,221.59125312859678,277.40595394234037,92.819068420789932,86.390000000000001,0.98133333333333894,0.89045208138201593,1.5221751980252520,0.13038648399824299
20221127070000,426.03605991531862,6.1012761191394622,0.25582259632652787,0,-23.000759338620217,0,-2.9072511880562200,0,0.72311147486911720,0,322.12565196890080,3.1008926206525396,6.9235576295724925,0.99276103868573262,0.83623060277068206,0.58984133390627014,0.46598182387676085,363.58076870449844,5.2257989518258371E-002,103.69597965368948,189.58932294339348,226.88999777451619,284.03935346711813,92.843433555989591,88.010000000000005,0.75799999999998136,0.77192572523288283,1.2966427341037274,0.11044370685298815
20221127073000,426.03158526168551,6.0840774227358567,0.16033966619662091,0,-22.431359997932624,0,-1.3066312030162803,1,0.50726360799390358,0,324.38642667018252,2.8603526552598582,6.4834809352302223,0.81080961197439538,0.66564585156572820,0.48445565682306019,0.36872964785006485,184.77922781822554,0.10282541075824299,100.65100637456173,184.02214064473034,220.22750244121542,275.69869991028253,92.888483228732639,88.650000000000006,0.62533333333334440,0.72375271225033089,1.1455875540839315,0.12098999091969695
20221127080000,426.14076699464187,6.0300557904104837,0.13634699040882339,0,-25.453479413328733,0,-1.6160185107401421,0,0.56368173104328090,0,319.23046720501168,3.4277487443581691,6.6213802003348157,0.78467959574057167,0.73180835442902592,0.47155491470084332,0.33984077788046624,127.49772197371601,0.14902227040508928,96.349501201704641,176.15761729403684,210.81567661772613,263.91621082715517,92.901621214409730,89.489999999999995,0.37366666666667925,0.65809608981373235,0.87177380215683797,0.15745750939558253
20221127083000,426.24000904401743,6.0129533039952658,0.31329528894334380,0,-29.563746531891834,0,-2.6874622442219618,0,0.74445873366981685,0,327.79179742606163,3.4789896181697526,7.9793923457130989,1.1324831802957687,0.83237670064397684,0.59102096162694262,0.51490440355068168,381.85460184754822,4.9757158635960523E-002,112.13827657681492,205.02453425137114,245.36200350219036,307.16411267022647,92.918684958767372,90.579999999999998,0.17000000000001592,0.58120046309333928,0.66755889680655400,0.13327795716184201
20221127090000,426.19271144163071,6.0805575816878497,0.43683951076345046,0,-16.484649472231137,0,-0.56136968024444300,2,1.1287360748486417,0,335.41117864144383,3.6019159481141663,10.075784860654295,1.4863304135701880,0.93917095664587114,0.67210021211127535,0.60826699488631941,1128.8821864787269,1.6830808588862468E-002,115.60671888722449,211.36595299773785,252.95106212064437,316.66471351007471,92.907290361183257,90.329999999999998,0.36066666666664560,0.60492863484112724,0.81790534519171842,0.12431526116640078
20221127093000,425.98878203626953,6.0146862423194865,0.64728416549304690,0,-7.1643996698378771,0,-1.1789351872166973,0,0.42831749136761149,0,341.89895099061584,4.0999020182831272,9.3035298858669524,1.6059777461028979,1.0084569002835557,0.78324696541254302,0.74034754419845938,4683.2158437363532,4.0570412797462400E-003,119.69732231946092,218.84488070291658,261.90142843895450,327.86951005149467,92.900280157986131,89.803333333333327,0.29000000000002046,0.63461779422724707,0.71931994459373527,0.15103670162463123
20221127100000,426.16029602050367,5.8705316376239676,0.57143790021028329,0,-3.4293054549109887,0,3.1015154777783720,0,0.56816165503270566,0,342.34575415901435,3.5459342865262871,9.4822486497741867,1.4992479010597755,1.0280422004025609,0.74757224151290680,0.69515200748219763,8099.2700056635995,2.3458904304602532E-003,118.13978909927185,215.99721322666855,258.49349777430734,323.60318525912049,92.902655175130207,89.886666666666670,-5.6666666666671972E-002,0.61379180380538967,0.36861749649051490,0.12284964304425496
20221127103000,426.07221217958244,5.6588214060820636,0.68973912847386354,0,-4.2062951355664886,0,2.5985554044606229,0,0.75214805785469274,0,339.47193657430682,3.8091583216471596,10.612928839974286,1.6494915485044612,1.1815778861408868,0.74836874139356524,0.76337696785927223,8744.1212768676905,2.1728884353724516E-003,127.21948422262182,232.59779173238599,278.36015039874070,348.47387688215014,92.903385911675343,88.079999999999998,-0.28233333333332666,0.71166065955323343,0.14248019875424234,9.9475212781901814E-002
20221127110000,426.00836897000568,5.5368426417522452,0.55637780564126826,0,-2.8219723310645977,1,9.5287300570340072,1,0.75922614540162658,0,346.54599297776156,3.3861574809470829,10.012169336696982,1.4594793352991628,1.0297200037428578,0.69969533815596041,0.68541993455627404,9434.6528571264625,2.0138525802407617E-003,123.16664183754705,225.18790326468709,269.49240641482663,337.37251369907125,92.909117393446181,86.989999999999995,-0.40966666666668061,0.76956438461759946,1.5406705644409158E-002,9.6333958009219720E-002
20221127113000,425.98229049337823,5.4069012597983281,0.29008914196966734,0,-6.9382379118543058,0,-1.3028249230989404,2,0.21311845398841681,1,345.77931955529834,2.7960093302032361,8.2206023119965241,1.1171387012570579,0.91143275895317799,0.62402727517704115,0.49476055692902443,1443.3431276601759,1.3163882957478843E-002,103.99395559455894,190.13411799785493,227.54197831210809,284.85555573335813,92.919628054687507,85.796666666666667,-0.54433333333332712,0.83194045795604044,-0.11485655622124114,7.4184688146228209E-002
20221127120000,425.93248250329793,5.3206016094635071,0.43236030764678740,0,-6.4458523996542096,0,1.4726219394482982,0,0.45649280672024795,0,343.78583389142250,3.2901624593434278,8.9761893589561108,1.3135701117649683,1.0754415302853209,0.67010200571537870,0.60397781939353890,2825.9006465463649,6.7235201716028432E-003,115.22824765734853,210.67398688231688,252.12295541109731,315.62802217643878,92.903827944661458,84.886666666666670,-0.62099999999998090,0.88030184187464100,-0.18954784605233499,8.2470363522620951E-002
20221127123000,425.89191765948726,5.2224132052819066,0.32202812269695957,0,-5.1239209450998242,0,1.5589343682266394,1,0.40494323173852914,0,346.45493696465587,3.0276353637707367,8.0553878732867155,1.1657622817323181,0.93715914560708047,0.65008978653841321,0.52117319863720102,2283.8391638392241,8.3193248897878817E-003,104.92087037486397,191.82881384055918,229.57009640446742,287.39451891974420,92.890349194010412,83.969999999999999,-0.72933333333332939,0.92633414974126771,-0.29735409333966345,8.1595368632461376E-002
20221127130000,425.91204138278101,5.1589563551779474,0.16537292468956927,0,-4.8985681835168240,0,-1.6875558711222498,2,-2.8088787084266025E-002,2,350.40221813352662,2.7617261785161706,7.0639103514747061,0.97909676558461511,0.75404464146870231,0.48598764500722186,0.37341340535912393,878.65188900974761,2.1624035909617464E-002,101.41603818285134,185.42086278466459,221.90141560409751,277.79424055644904,92.890222336371536,83.503333333333330,-0.82033333333333758,0.94697981543852849,-0.37849919043645741,7.9772403027132385E-002
20221127133000,426.14188061583155,5.1634594422812130,0.20356345128420358,0,-12.327819613843040,0,0.22526285066417026,2,0.28977530138784185,0,349.57950628667720,2.2589690517355527,6.2508429516299691,0.94781796128015960,0.68225130957658264,0.46629216923776029,0.41409585423732920,476.24280346083174,3.9895615979764917E-002,113.86994428412105,208.19057510741533,249.15094578875770,311.90741880076092,92.919104863715276,84.680000000000007,-0.99533333333334895,0.86824078506066149,-0.53802425214979621,7.7608142645900310E-002
20221127140000,426.32448950484292,5.1812080666786020,0.33656442066764547,0,-9.7053066689388832,0,-4.4964735084606258E-002,2,0.43290638115877905,0,344.08067809173207,2.8006919892221624,7.6716585445147292,1.0968775053731463,0.71912961684251853,0.54352536868761248,0.53235317704535212,1285.2502216873502,1.4783113575390566E-002,123.15127842110172,225.15981403951466,269.45879078638347,337.33043092123597,92.914538359809029,85.730000000000004,-1.1173333333333630,0.80153471217140404,-0.65219231626718965,8.1668648584972414E-002
20221127143000,426.34448160767533,5.1855894885909777,0.19682917135081171,0,-9.9380673102721211,0,-3.5134368294508169,1,3.4807468142672333E-002,1,349.11288320952644,2.2671742595365685,5.8457338138477057,0.88409767378629667,0.62860759611552552,0.45818580889393545,0.40694705902419664,560.69087983643351,3.3886764852573914E-002,113.88117095932608,208.21110105025451,249.17551009993727,311.93817040345056,92.919055873480900,87.096666666666664,-1.3206666666666820,0.71403546573118659,-0.83529448954260488,8.9084890665245081E-002
20221127150000,426.36223722008202,5.2520917133752913,0.25291222903531529,0,-1.4613117482905977,0,3.4193262020208487E-004,2,4.9357206221936095E-002,2,352.63894587015278,2.2924786344412293,5.9332990323604102,0.90558754993235091,0.66687412749213193,0.51306697467792928,0.46134175631356161,5555.6776255939476,3.4199248553354899E-003,115.00953908451940,210.27411785766355,251.64441431656121,315.02894551183158,92.917550449001752,87.923333333333332,-1.2760000000000105,0.67048561913221594,-0.81185238820398808,7.7969507818253778E-002
20221127153000,426.03547143699029,5.3068500009372741,0.43514549824808457,0,14.767398465185842,1,-0.10958506354261596,2,-0.57025515549364070,2,346.94458584838037,2.8273960733104948,8.4062060556469991,1.2308049191256651,0.87725069346734019,0.63554891758697896,0.60541060949697478,-1242.3391074344174,-1.5293730903502932E-002,120.44138335736278,220.20526158629787,263.52945691023621,329.90760850865308,92.910770713738756,87.420000000000002,-1.0573333333333608,0.70972351253918931,-0.61789603941554105,0.10657949135020595
20221127160000,425.03799671099898,5.1389071764244445,0.54981330364154812,0,78.867233437648977,0,13.753024475357764,0,-0.32016170141882305,1,348.16037346772089,3.1266907392742644,8.1106973721018321,1.4175010456803998,1.1053201295737960,0.73946628936730441,0.68121436531924462,-331.37906596842265,-5.7336150503274466E-002,117.25928285726771,214.38736699322243,256.56692299333741,321.19134224902632,92.906282081597226,81.251333333333335,-0.49700000000001410,1.1019762245535925,-0.21810820261640629,0.33527428964863759
20221127163000,424.06513545540702,4.6901696962213357,0.83995571260280866,0,72.093885825570197,0,16.151605961495960,0,-1.3860960100142143,0,349.26630148276979,4.1648276397197321,11.392799960820817,1.8151814681508538,1.2323837790695717,0.83955592534261680,0.84251261328004257,-685.71979287252668,-2.7708110801946829E-002,125.56723295079310,229.57694944896753,274.74497371937349,343.94810467205315,92.898839758246524,72.197999999999993,-0.13066666666668425,1.6782868723161324,0.10899600134956700,0.24405648850566952
20221127170000,424.39103085703562,4.8701690321782092,0.93376921475511165,0,102.58000515992985,0,2.7354785056005801,2,-2.7437190098531454,1,333.72518672173226,3.7900707820256119,10.146093880274458,1.7156382881911627,1.3778374763273071,0.93048563198217848,0.88868138594003832,-565.53760834538070,-3.3596351011189463E-002,120.69354113232419,220.66628642052481,264.08118588942028,330.59830772004915,92.885792174696178,74.054000000000002,3.6333333333345763E-002,1.5853738682137049,0.25964480082188857,0.27976939271103768
20221127173000,424.20324710238270,4.8240934146077574,0.93450707636817210,0,120.35261303406300,0,12.412417159394023,1,-1.2711023018383600,1,336.13487641263589,3.8514469155103992,11.030479738185884,1.8262205670331162,1.3609797795338199,0.93896530277512158,0.88881948726393945,-482.17941619796352,-3.9404419520470288E-002,119.83567286169074,219.09782961875499,262.20414368715853,328.24847362074797,92.868360414279508,74.290999999999997,-0.14100000000001955,1.5507755545404711,0.10590287695993084,0.33512207547645056
20221127180000,423.69134514510114,4.5611655330033578,0.82697965621676917,0,92.836432397909334,0,11.071205491533663,1,-1.1633980096525807,1,340.43216455302866,3.8833900843348861,10.683728877697490,1.8131080390876972,1.4874535436927514,0.86023729835662666,0.83662407154768748,-521.17565395033193,-3.6456039064730952E-002,122.45726895447699,223.89094339155793,267.94027669486468,335.42943147209161,92.839884907335076,68.849666666666664,0.13033333333333985,1.9164070633294374,0.35960568322076369,0.23879069242522277
20221127183000,423.11258013317672,4.3990984754474534,0.54506369820772005,0,34.808644061090796,0,4.3816492497075750,2,-0.91878337464557114,1,340.72872372873508,3.7472908967555307,9.7393951714207549,1.5005259563415945,1.3476307257088320,0.80328257721751495,0.67901952436459612,-743.17276093775331,-2.5566060812058481E-002,109.46266856560077,200.13266946546415,239.50769075315930,299.83520780646234,92.849050838113953,66.955333333333328,1.7666666666684705E-002,2.0163867294043367,0.31505172666754788,0.18667946178055106
20221127190000,422.77674166798369,4.2808522595731127,0.58829059730429101,0,54.632688842015213,1,29.215501718081956,1,-0.91300218204812433,0,337.03357098998436,3.1743012808572582,9.8018495415281865,1.4930479865980117,1.0241399929350516,0.74628672116427552,0.70536568721395698,-530.77516092852727,-3.5796701501181381E-002,119.69108172389316,218.83347090388284,261.88777382361445,327.85241609340454,92.848622202473962,65.343333333333334,-2.1999999999991360E-002,2.1086654711697195,0.30120112440317826,0.18906697780152412
20221127193000,422.38620625648849,4.1514687298719757,0.66073368730208104,0,67.223340258991414,0,24.396373375375699,0,-0.86104009965058359,1,333.69962825618029,3.4578181636930254,10.598890447858993,1.7079223150901535,1.5299697349395907,0.89085116206789183,0.74766471417827718,-513.66313502370951,-3.6989222516665525E-002,108.83693098333663,198.98862159631926,238.13855764769576,298.12121562566654,92.838508040798615,63.002000000000002,5.6333333333327573E-002,2.2639681589339471,0.33320852491590358,0.20581842409367399
20221127200000,422.14675916635912,4.0216188244722355,0.73092419079103044,0,36.309212074371274,0,15.206802519284865,0,-1.1966446617771587,0,322.65065754522897,3.6014810927225871,10.464705257508347,1.6326338578765083,1.3200625333716181,0.87555076800138387,0.78617608172096842,-1105.7696486524742,-1.7182602202144001E-002,114.88033535478978,210.03789223230174,251.36171257586969,314.67503647909473,92.854577669704852,61.387333333333331,-2.1333333333359406E-002,2.3494798854019576,0.28417994859483997,0.11883159050597414
20221127203000,421.65695152864038,3.8508973168753777,0.96169623864327014,0,34.359826066533401,0,24.109953186614057,0,-0.22977519184095921,0,324.01808387880010,3.6036753893965052,10.758298935274135,1.9497804180645029,1.3739597601037741,0.92835965780552654,0.90167872405202576,-1763.2440125174073,-1.0775593091550297E-002,122.32728863172534,223.65329790647016,267.65587574471840,335.07339523075296,92.883784236545139,58.630666666666670,1.8333333333316659E-002,2.5244804311620288,0.31580510033501241,0.10087949894895602
20221127210000,421.96945976910177,3.9218122036701244,0.58866423027801240,0,14.711333104409754,0,6.9232090482544297,0,-0.25510796219471610,0,327.86498521662645,3.2024678377606342,10.483042602454004,1.5004124212482717,1.4022602428563091,0.82564795621628739,0.70514590727563908,-1970.0836469938654,-9.6442605515719825E-003,110.36774348495021,201.78743507687523,241.48802255698408,302.31434823013041,92.910107935329862,60.452333333333335,-0.14766666666668016,2.3843721146263390,0.18127501932787027,0.13769579647949365
20221127213000,422.48557494881277,4.0324760220241291,0.43174304101449368,0,-1.2095348706772402,2,13.693988996350999,1,0.60791039079424702,1,323.11369804784266,3.2716969136998331,8.3592967876967244,1.4185677521549334,1.1395540690408767,0.80284075961388268,0.60342296911083459,15020.094690914259,1.2649720518402064E-003,99.643469117559547,182.18004120140355,218.02297988631582,272.93889926971110,92.946078172526043,63.685666666666670,-0.47566666666665469,2.1377441114723270,-0.11252809651688267,9.5190492023440987E-002
20221127220000,423.09858679236669,4.1742678143913432,0.62988676647819686,0,4.0856032980353314,1,3.2486661685949136,2,-6.8380703970056439E-002,2,323.83056150257391,3.1414604672380864,8.8315431060446112,1.4875580231124317,1.2121908871528204,0.77543922301173596,0.72832393318919098,-7821.2959737414767,-2.4292649279337988E-003,119.09029012018053,217.73503223964190,260.57322328766742,326.20675481264010,92.984284938802091,67.408000000000001,-0.77466666666668971,1.8771799809185354,-0.38129910447855764,0.10533744993236739
20221127223000,423.28804500041389,4.0870097975781521,0.47308224032439977,0,-1.7417634074746193,2,10.827435775285986,0,0.60407318793533527,0,336.59912273308532,2.9303751793812727,7.7994265089000381,1.2315277916004126,1.0169850094539494,0.73376958439490558,0.63070694964458929,11916.723632893958,1.5943979725730939E-003,110.93516363920564,202.82486008823045,242.72955533353129,303.86859994072876,93.017230753689233,67.554333333333332,-1.0880000000000223,1.8263712144528352,-0.67702315521239598,9.6729177918859613E-002